FW9077 Weather Reports


Display with metric or nautical units.
time (UTC)temp
F
wind
direction
speed
MPH
gust
MPH
rain 1hr
in
rain 24hr
in
rain mn
in
humidity
%
barometer
mb
20260507145458 55 281 2.0 2.0 0.00 0.01 0.01 64 1006.9
20260507144956 55 65 2.0 3.0 0.00 0.01 0.01 61 1007.2
20260507144453 56 107 3.0 3.0 0.00 0.01 0.01 61 1007.0
20260507143950 57 128 1.0 1.0 0.00 0.01 0.01 60 1007.0
20260507143448 56 87 3.0 3.0 0.00 0.01 0.01 62 1006.9
20260507142944 57 104 2.0 2.0 0.00 0.01 0.01 59 1007.0
20260507142440 57 104 1.0 1.0 0.00 0.01 0.01 62 1007.0
20260507141937 56 101 1.0 1.0 0.00 0.01 0.01 61 1007.1
20260507141433 57 103 3.0 3.0 0.00 0.01 0.01 59 1007.0
20260507140930 56 100 1.0 2.0 0.00 0.01 0.01 57 1007.1
20260507140426 57 59 3.0 5.0 0.00 0.01 0.01 61 1007.2
20260507135924 57 50 2.0 2.0 0.00 0.01 0.01 61 1006.9
20260507135421 56 80 2.0 3.0 0.00 0.01 0.01 62 1007.0
20260507134918 55 107 3.0 3.0 0.00 0.01 0.01 61 1006.8
20260507134415 55 290 3.0 3.0 0.00 0.01 0.01 62 1007.0
20260507133910 55 116 0.0 0.0 0.00 0.01 0.01 64 1007.0
20260507133406 55 79 1.0 2.0 0.00 0.01 0.01 63 1007.1
20260507132905 54 212 3.0 3.0 0.00 0.01 0.01 66 1007.0
20260507132401 54 121 1.0 1.0 0.00 0.01 0.01 65 1007.2
20260507131858 54 127 2.0 2.0 0.00 0.01 0.01 64 1007.5
20260507131355 54 138 2.0 2.0 0.00 0.01 0.01 65 1007.3
20260507130852 53 134 2.0 2.0 0.00 0.01 0.01 70 1007.4
20260507130349 53 101 2.0 3.0 0.00 0.01 0.01 69 1007.5
20260507125848 53 84 4.0 6.0 0.00 0.01 0.01 70 1007.2
20260507125345 53 107 2.0 2.0 0.00 0.01 0.01 71 1007.4
20260507124843 52 75 3.0 3.0 0.00 0.01 0.01 71 1007.3
20260507124338 52 100 1.0 1.0 0.00 0.01 0.01 70 1007.0
20260507123837 52 129 2.0 3.0 0.00 0.01 0.01 71 1007.4
20260507123334 51 283 1.0 2.0 0.00 0.01 0.01 72 1007.1
20260507122830 51 111 2.0 3.0 0.00 0.01 0.01 72 1007.7
20260507122325 51 350 3.0 5.0 0.00 0.01 0.01 76 1007.5
20260507121823 51 112 4.0 5.0 0.00 0.01 0.01 77 1007.5
20260507121318 50 75 2.0 2.0 0.00 0.01 0.01 80 1007.5
20260507120814 49 28 3.0 3.0 0.00 0.01 0.01 82 1007.5
20260507120311 48 107 1.0 1.0 0.00 0.01 0.01 86 1007.5
20260507115807 47 97 3.0 3.0 0.00 0.01 0.01 87 1007.5
20260507115306 47 110 1.0 1.0 0.00 0.01 0.01 86 1007.2
20260507114759 47 99 1.0 2.0 0.00 0.01 0.01 86 1007.2
20260507114256 48 102 2.0 2.0 0.00 0.01 0.01 85 1007.4
20260507113753 48 111 2.0 2.0 0.00 0.01 0.01 85 1007.1
20260507113244 48 138 2.0 2.0 0.00 0.01 0.01 85 1007.2
20260507112742 48 87 3.0 3.0 0.00 0.01 0.01 85 1007.3
20260507112238 47 92 1.0 1.0 0.00 0.01 0.01 86 1007.1
20260507111737 47 81 3.0 3.0 0.00 0.01 0.01 87 1007.2
20260507111233 47 107 2.0 2.0 0.00 0.01 0.01 87 1007.2
20260507110729 47 104 1.0 1.0 0.00 0.01 0.01 88 1007.3
20260507110226 47 109 1.0 2.0 0.00 0.01 0.01 87 1007.0
20260507105722 47 20 2.0 2.0 0.00 0.01 0.01 87 1007.2
20260507105218 47 85 2.0 2.0 0.00 0.01 0.01 88 1007.2
20260507104716 47 110 2.0 2.0 0.00 0.01 0.01 88 1006.8
20260507104212 47 109 2.0 2.0 0.00 0.01 0.01 88 1006.6
20260507103708 47 77 2.0 2.0 0.00 0.01 0.01 88 1006.6
20260507103205 47 99 2.0 2.0 0.00 0.01 0.01 88 1006.7
20260507102701 46 108 2.0 2.0 0.00 0.01 0.01 88 1006.7
20260507102158 47 110 2.0 2.0 0.00 0.01 0.01 89 1006.5
20260507101654 47 108 1.0 1.0 0.00 0.01 0.01 89 1006.7
20260507101149 47 101 1.0 1.0 0.00 0.01 0.01 90 1006.9
20260507100647 47 106 0.0 1.0 0.00 0.01 0.01 90 1006.7
20260507100145 47 102 2.0 2.0 0.00 0.01 0.01 90 1006.4
20260507095643 47 91 2.0 2.0 0.00 0.01 0.01 90 1006.5
20260507095139 47 94 1.0 1.0 0.00 0.01 0.01 90 1006.7
20260507094636 47 108 2.0 2.0 0.00 0.01 0.01 90 1006.8
20260507094132 47 106 1.0 1.0 0.00 0.01 0.01 90 1007.0
20260507093630 47 107 1.0 1.0 0.00 0.01 0.01 91 1006.9
20260507093129 47 61 1.0 2.0 0.00 0.01 0.01 90 1007.0
20260507092625 47 109 1.0 2.0 0.00 0.01 0.01 91 1006.8
20260507092121 47 110 2.0 2.0 0.00 0.01 0.01 91 1006.8
20260507091618 46 101 2.0 2.0 0.00 0.01 0.01 92 1006.7
20260507091114 46 85 1.0 1.0 0.00 0.01 0.01 93 1007.0
20260507090610 46 47 2.0 2.0 0.00 0.01 0.01 94 1007.0
20260507090107 46 89 3.0 3.0 0.00 0.01 0.01 95 1006.4
20260507085604 46 127 1.0 1.0 0.00 0.01 0.01 95 1006.5
20260507085101 46 92 1.0 2.0 0.00 0.01 0.01 95 1006.6
20260507084558 46 79 2.0 2.0 0.00 0.01 0.01 95 1007.0
20260507084055 46 106 1.0 1.0 0.00 0.01 0.01 96 1006.7
20260507083551 46 97 1.0 1.0 0.00 0.01 0.01 96 1006.6
20260507083048 46 107 1.0 1.0 0.00 0.01 0.01 95 1006.4
20260507082544 46 108 0.0 0.0 0.00 0.01 0.01 94 1006.5
20260507082041 47 339 2.0 2.0 0.07 0.01 0.01 94 1006.5
20260507081537 47 105 0.0 0.0 0.07 0.01 0.01 93 1006.5
20260507081034 47 108 0.0 0.0 0.00 0.00 0.00 92 1006.4
20260507080529 48 96 1.0 1.0 0.00 0.00 0.00 91 1006.1
20260507080026 48 94 1.0 1.0 0.00 0.00 0.00 90 1006.4
20260507075522 48 99 1.0 1.0 0.00 0.00 0.00 88 1006.6
20260507075018 49 100 1.0 1.0 0.00 0.00 0.00 89 1006.6
20260507074515 49 109 2.0 2.0 0.00 0.00 0.00 89 1006.8
20260507074014 49 107 0.0 1.0 0.00 0.00 0.00 90 1006.6
20260507073509 49 100 3.0 3.0 0.00 0.00 0.00 91 1006.4
20260507073006 49 74 2.0 2.0 0.00 0.00 0.00 92 1006.4
20260507072504 49 97 1.0 1.0 0.00 0.00 0.00 92 1006.2
20260507072001 49 90 2.0 2.0 0.00 0.00 0.00 93 1006.2
20260507071458 49 93 2.0 2.0 0.00 0.00 0.00 92 1006.0
20260507070954 49 89 2.0 2.0 0.00 0.00 0.00 93 1006.0
20260507070451 49 94 1.0 1.0 0.00 0.00 0.00 93 1006.4
20260507065948 49 83 2.0 2.0 0.00 0.00 0.00 93 1006.3
20260507065445 49 83 2.0 2.0 0.00 0.00 0.00 93 1006.1
20260507064942 49 97 0.0 1.0 0.00 0.00 0.00 92 1006.0
20260507064440 49 100 1.0 1.0 0.00 0.00 0.00 92 1006.0
20260507063938 49 106 2.0 2.0 0.00 0.00 0.00 92 1005.8
20260507063434 49 103 1.0 1.0 0.00 0.00 0.00 92 1006.3
20260507062932 49 111 0.0 0.0 0.00 0.00 0.00 92 1005.7
20260507062429 49 104 0.0 0.0 0.00 0.00 0.00 92 1005.9
20260507061926 49 102 0.0 1.0 0.00 0.00 0.00 91 1005.9
20260507061424 49 67 1.0 2.0 0.00 0.00 0.00 92 1005.8
20260507060922 49 102 0.0 1.0 0.00 0.00 0.00 91 1005.9
20260507060419 49 107 0.0 1.0 0.00 0.00 0.00 90 1006.0
20260507055915 49 93 1.0 1.0 0.00 0.00 0.00 90 1006.1
20260507055411 49 100 1.0 1.0 0.00 0.00 0.00 91 1006.0
20260507054908 49 107 1.0 1.0 0.00 0.00 0.00 91 1006.2
20260507054404 49 107 1.0 2.0 0.00 0.00 0.00 92 1006.2
20260507053901 49 259 1.0 2.0 0.00 0.00 0.00 93 1006.4
20260507053359 49 108 1.0 1.0 0.00 0.00 0.00 93 1006.6
20260507052858 50 98 2.0 2.0 0.00 0.00 0.00 95 1006.4
20260507052354 50 118 0.0 1.0 0.00 0.00 0.00 95 1006.2
20260507051851 50 104 1.0 1.0 0.00 0.00 0.00 95 1006.4
20260507051349 50 109 2.0 2.0 0.00 0.00 0.00 96 1006.5
20260507050845 50 120 1.0 2.0 0.00 0.00 0.00 97 1006.3
20260507050342 50 93 1.0 2.0 0.00 0.00 0.00 97 1006.2
20260507045839 50 114 0.0 0.0 0.00 0.00 0.00 97 1006.2
20260507045335 50 104 0.0 1.0 0.00 0.00 0.00 98 1005.8
20260507044833 50 93 0.0 1.0 0.00 0.00 0.00 98 1005.9
20260507044329 50 100 1.0 1.0 0.00 0.00 0.00 98 1006.0
20260507043825 50 110 1.0 2.0 0.00 0.00 0.00 98 1006.1
20260507043322 50 107 0.0 0.0 0.00 0.00 0.00 98 1006.1
20260507042818 50 81 4.0 5.0 0.00 0.00 0.00 98 1006.1
20260507042314 51 159 1.0 2.0 0.00 0.00 0.00 98 1006.1
20260507041811 51 104 1.0 1.0 0.00 0.00 0.00 98 1006.6
20260507041308 51 65 2.0 3.0 0.00 0.00 0.00 98 1006.3
20260507040805 52 106 1.0 2.0 0.00 0.00 0.00 98 1006.4
20260507040301 52 89 1.0 1.0 0.00 0.00 0.00 98 1006.3
20260507035757 52 102 1.0 1.0 0.00 0.24 0.24 98 1006.2
20260507035252 52 181 2.0 2.0 0.00 0.24 0.24 98 1005.9
20260507034750 53 352 4.0 6.0 0.00 0.24 0.24 98 1005.8
20260507034247 54 80 3.0 3.0 0.00 0.24 0.24 98 1005.6
20260507033745 54 98 3.0 3.0 0.00 0.24 0.24 98 1005.5
20260507033242 55 73 3.0 3.0 0.05 0.24 0.24 98 1005.4
20260507032739 55 114 2.0 3.0 0.05 0.24 0.24 98 1005.3
20260507032235 56 107 2.0 3.0 0.00 0.23 0.23 98 1005.3
20260507031732 56 84 3.0 3.0 0.00 0.23 0.23 98 1005.1
20260507031229 57 63 3.0 3.0 0.00 0.23 0.23 98 1005.1
20260507030726 57 294 2.0 2.0 0.00 0.23 0.23 98 1005.5
20260507030223 58 112 3.0 3.0 0.00 0.23 0.23 98 1005.2
20260507025720 58 290 3.0 5.0 0.00 0.23 0.23 98 1005.1
20260507025217 58 346 2.0 2.0 0.00 0.23 0.23 98 1004.8
20260507024716 58 7 3.0 3.0 0.00 0.23 0.23 98 1004.9
20260507024212 58 127 1.0 1.0 0.00 0.23 0.23 98 1005.1
20260507023708 58 124 3.0 3.0 0.00 0.23 0.23 98 1004.9
20260507023205 58 148 2.0 3.0 0.00 0.23 0.23 98 1005.0
20260507022702 58 271 3.0 3.0 0.00 0.23 0.23 98 1005.1
20260507022158 58 110 0.0 1.0 0.00 0.23 0.23 98 1004.7
20260507021654 58 143 1.0 2.0 0.00 0.23 0.23 98 1004.5
20260507021149 58 113 1.0 2.0 0.00 0.23 0.23 98 1004.8
20260507020649 58 166 2.0 2.0 0.00 0.23 0.23 98 1004.7
20260507020144 58 195 3.0 3.0 0.00 0.23 0.23 98 1004.7
20260507015643 58 204 1.0 1.0 0.00 0.23 0.23 98 1004.9
20260507015140 58 190 3.0 3.0 0.00 0.23 0.23 98 1004.8
20260507014636 58 173 1.0 3.0 0.00 0.23 0.23 98 1004.8
20260507014132 58 159 2.0 2.0 0.00 0.23 0.23 98 1004.8
20260507013629 58 145 2.0 2.0 0.00 0.23 0.23 98 1004.8
20260507013126 58 175 2.0 3.0 0.00 0.23 0.23 98 1004.7
20260507012624 58 192 2.0 2.0 0.00 0.23 0.23 98 1004.9
20260507012119 58 192 0.0 1.0 0.00 0.23 0.23 98 1005.0
20260507011617 58 192 2.0 3.0 0.00 0.23 0.23 98 1004.8
20260507011113 58 175 4.0 7.0 0.00 0.23 0.23 98 1005.1
20260507010608 58 207 3.0 5.0 0.00 0.23 0.23 98 1005.0
20260507010104 58 241 4.0 6.0 0.00 0.23 0.23 98 1005.0
20260507005602 58 153 2.0 3.0 0.00 0.23 0.23 98 1004.9
20260507005058 58 233 3.0 7.0 0.00 0.23 0.23 98 1005.1
20260507004555 58 164 3.0 5.0 0.00 0.23 0.23 98 1004.7
20260507004052 58 154 5.0 7.0 0.00 0.23 0.23 98 1004.8
20260507003548 58 127 2.0 3.0 0.00 0.23 0.23 98 1004.6
20260507003043 58 171 5.0 7.0 0.00 0.23 0.23 98 1004.7
20260507002540 58 202 5.0 7.0 0.00 0.23 0.23 98 1005.1
20260507002036 58 150 3.0 3.0 0.00 0.23 0.23 98 1005.0
20260507001533 58 175 2.0 3.0 0.07 0.23 0.23 98 1004.8
20260507001031 58 144 2.0 2.0 0.07 0.23 0.23 98 1004.7
20260507000526 58 114 3.0 5.0 0.00 0.22 0.22 98 1004.7
20260507000023 58 132 1.0 2.0 0.00 0.22 0.22 98 1004.6
20260506235520 58 132 1.0 1.0 0.00 0.22 0.22 98 1004.5
20260506235015 58 190 5.0 7.0 0.00 0.22 0.22 98 1004.7
20260506234513 58 221 2.0 3.0 0.00 0.22 0.22 98 1004.6
20260506234010 58 110 3.0 5.0 0.00 0.22 0.22 98 1004.6
20260506233506 58 161 4.0 5.0 0.00 0.22 0.22 98 1004.4
20260506233004 58 249 3.0 5.0 0.00 0.22 0.22 98 1004.8
20260506232459 58 150 1.0 1.0 0.12 0.22 0.22 98 1004.7
20260506231955 58 130 3.0 5.0 0.17 0.22 0.22 98 1004.5
20260506231453 58 258 3.0 5.0 0.05 0.20 0.20 98 1004.7
20260506230950 58 236 5.0 6.0 0.07 0.19 0.19 98 1004.7
20260506230446 58 177 2.0 2.0 0.12 0.19 0.19 98 1004.7
20260506225943 58 146 2.0 3.0 0.12 0.18 0.18 98 1004.9
20260506225441 58 285 4.0 7.0 0.12 0.17 0.17 98 1004.8
20260506224937 58 238 2.0 5.0 0.05 0.16 0.16 98 1005.0
20260506224434 58 163 1.0 2.0 0.00 0.15 0.15 98 1004.8
20260506223931 58 153 1.0 1.0 0.00 0.15 0.15 98 1004.9
20260506223426 58 195 5.0 6.0 0.00 0.15 0.15 98 1004.9
20260506222924 58 123 2.0 2.0 0.07 0.15 0.15 98 1004.8
20260506222420 58 132 3.0 3.0 0.07 0.15 0.15 98 1005.0
20260506221917 58 190 5.0 7.0 0.00 0.14 0.14 98 1005.0
20260506221414 58 180 5.0 6.0 0.00 0.14 0.14 98 1004.9
20260506220912 58 221 3.0 3.0 0.05 0.14 0.14 98 1005.0
20260506220407 58 124 1.0 2.0 0.12 0.14 0.14 98 1005.1
20260506215904 58 196 5.0 6.0 0.14 0.13 0.13 98 1005.3
20260506215400 58 155 3.0 5.0 0.07 0.12 0.12 98 1005.2
20260506214856 58 149 2.0 2.0 0.00 0.11 0.11 98 1005.1
20260506214353 58 178 4.0 6.0 0.00 0.11 0.11 98 1005.2
20260506213851 58 146 6.0 8.0 0.00 0.11 0.11 98 1005.2
20260506213348 58 234 6.0 9.0 0.00 0.11 0.11 98 1005.2
20260506212845 59 199 1.0 2.0 0.00 0.11 0.11 98 1005.2
20260506212341 59 173 2.0 2.0 0.05 0.11 0.11 98 1005.5
20260506211836 59 161 2.0 3.0 0.05 0.11 0.11 98 1005.5
20260506211332 59 147 3.0 5.0 0.07 0.10 0.10 98 1005.7
20260506210830 59 161 3.0 3.0 0.07 0.10 0.10 98 1005.6
20260506210327 59 173 3.0 6.0 0.00 0.09 0.09 98 1005.6
20260506205824 59 41 4.0 7.0 0.00 0.09 0.09 98 1005.7
20260506205320 59 167 6.0 9.0 0.05 0.09 0.09 98 1005.6
20260506204817 60 157 1.0 1.0 0.05 0.09 0.09 98 1005.7
20260506204314 60 226 6.0 11.0 0.07 0.08 0.08 97 1005.8
20260506203812 60 228 2.0 2.0 0.07 0.08 0.08 97 1005.7
20260506203309 60 61 3.0 3.0 0.00 0.07 0.07 97 1005.9
20260506202806 60 170 5.0 8.0 0.05 0.07 0.07 96 1005.6
20260506202306 60 250 4.0 5.0 0.12 0.07 0.07 96 1005.7
20260506201759 61 117 1.0 2.0 0.07 0.06 0.06 95 1005.6
20260506201256 61 171 3.0 3.0 0.07 0.06 0.06 95 1005.7
20260506200753 61 153 1.0 1.0 0.00 0.05 0.05 94 1005.7
20260506200249 61 140 4.0 6.0 0.00 0.05 0.05 93 1005.8
20260506195746 61 93 2.0 2.0 0.00 0.05 0.05 93 1005.8
20260506195242 62 129 1.0 2.0 0.00 0.05 0.05 93 1005.7
20260506194740 62 210 2.0 5.0 0.00 0.05 0.05 93 1005.9
20260506194236 62 142 1.0 1.0 0.00 0.05 0.05 93 1005.9
20260506193734 62 197 3.0 3.0 0.00 0.05 0.05 92 1005.8
20260506193230 62 151 4.0 6.0 0.05 0.05 0.05 93 1005.9
20260506192727 62 184 3.0 3.0 0.05 0.05 0.05 92 1005.6
20260506192224 62 152 1.0 2.0 0.07 0.04 0.04 91 1005.6
20260506191720 63 121 2.0 3.0 0.07 0.04 0.04 90 1005.7
20260506191216 63 167 3.0 6.0 0.05 0.03 0.03 91 1005.8
20260506190714 63 118 1.0 1.0 0.05 0.03 0.03 91 1005.8
20260506190210 63 135 1.0 1.0 0.07 0.02 0.02 90 1006.4
20260506185708 64 114 0.0 1.0 0.07 0.02 0.02 88 1006.1
20260506185204 64 120 1.0 1.0 0.00 0.01 0.01 86 1006.0
20260506184702 65 128 1.0 1.0 0.07 0.01 0.01 83 1006.1
20260506184159 65 116 2.0 2.0 0.07 0.01 0.01 79 1006.1
20260506183655 66 131 1.0 2.0 0.00 0.00 0.00 79 1006.0
20260506183151 66 129 1.0 2.0 0.00 0.00 0.00 76 1006.2
20260506182649 67 133 0.0 1.0 0.00 0.00 0.00 74 1006.2
20260506182146 68 196 1.0 2.0 0.00 0.00 0.00 72 1006.3
20260506181644 68 136 1.0 1.0 0.00 0.00 0.00 70 1006.0
20260506181141 68 135 3.0 5.0 0.00 0.00 0.00 69 1006.1
20260506180637 69 176 7.0 13.0 0.00 0.00 0.00 66 1006.1
20260506180134 69 234 4.0 5.0 0.00 0.00 0.00 65 1005.9
20260506175630 70 328 5.0 7.0 0.00 0.00 0.00 64 1006.2
20260506175126 71 239 3.0 3.0 0.00 0.00 0.00 62 1005.9
20260506174626 71 184 5.0 6.0 0.00 0.00 0.00 60 1006.1
20260506174122 71 131 2.0 2.0 0.00 0.00 0.00 61 1006.0
20260506173619 71 111 6.0 8.0 0.00 0.00 0.00 60 1006.1
20260506173116 71 315 4.0 6.0 0.00 0.00 0.00 61 1006.1
20260506172613 72 281 5.0 8.0 0.00 0.00 0.00 61 1006.0
20260506172109 72 21 4.0 6.0 0.00 0.00 0.00 60 1006.3
20260506171607 71 125 2.0 2.0 0.00 0.00 0.00 61 1006.3
20260506171105 71 213 7.0 11.0 0.00 0.00 0.00 61 1006.2
20260506170602 71 115 2.0 5.0 0.00 0.00 0.00 61 1006.2
20260506170059 71 191 6.0 8.0 0.00 0.00 0.00 61 1006.5
20260506165558 71 73 5.0 7.0 0.00 0.00 0.00 62 1006.5
20260506165053 71 189 4.0 5.0 0.00 0.00 0.00 62 1006.5
20260506164551 71 230 8.0 11.0 0.00 0.00 0.00 61 1006.9
20260506164048 71 135 2.0 3.0 0.00 0.00 0.00 62 1006.6
20260506163543 70 157 2.0 2.0 0.00 0.00 0.00 63 1006.8
20260506163039 70 183 2.0 2.0 0.00 0.00 0.00 63 1006.7
20260506162536 70 240 4.0 7.0 0.00 0.00 0.00 64 1006.7
20260506162033 70 235 8.0 13.0 0.00 0.00 0.00 63 1006.9
20260506161531 70 122 2.0 3.0 0.00 0.00 0.00 64 1007.1
20260506161027 70 131 1.0 2.0 0.00 0.00 0.00 65 1007.1
20260506160525 70 100 1.0 1.0 0.00 0.00 0.00 65 1007.2
20260506160022 69 152 1.0 2.0 0.00 0.00 0.00 66 1007.5
20260506155520 69 154 4.0 7.0 0.00 0.00 0.00 65 1007.5
20260506153652 69 253 3.0 5.0 0.00 0.00 0.00 66 1008.1
20260506153149 69 186 2.0 2.0 0.00 0.00 0.00 66 1008.0
20260506152646 70 175 3.0 5.0 0.00 0.00 0.00 65 1008.1
20260506152143 70 168 1.0 2.0 0.00 0.00 0.00 65 1008.0
20260506151642 70 218 5.0 7.0 0.00 0.00 0.00 65 1008.2
20260506151138 69 103 3.0 5.0 0.00 0.00 0.00 65 1008.0
20260506150635 69 171 5.0 11.0 0.00 0.00 0.00 66 1008.1
20260506150132 69 208 3.0 6.0 0.00 0.00 0.00 67 1008.2
20260506145629 69 143 5.0 6.0 0.00 0.00 0.00 67 1008.1